Weather in Morovo

Russia / Komi Republic     61°30′08″N   50°36′46″E
temp.,
°C
wind,
m/s
gust,
m/s
humid.,
%
clouds,
%
prec.,
mm/h
press.,
hPa
HPBL,
m
5 august, thu
thu500:00+15wnw278098 0.0 1011195
03:00+13nw398416 0.0 1012256
06:00+14nw3973100 0.0 1013346
09:00+17nw4651100 0.0 1014809
12:00+19nw463947 0.0 10141718
15:00+21nw45355 0.0 10152075
18:00+18nw37480 0.0 1015589
21:00+13nnw310685 0.0 1017345
6 august, fri
fri600:00+9nnw23835 0.0 101855
03:00+8nw23864 0.0 101949
06:00+12nw23705 0.0 1019232
09:00+16nnw35559 0.0 10191187
12:00+19nnw454267 0.0 10181822
15:00+19nnw3440100 0.0 10181942
18:00+16nne365861 0.0 1019762
21:00+10n278233 0.0 1020131
7 august, sat
sat700:00+8n22886 0.0 102044
03:00+9nnw228298 0.0 102140
06:00+12nnw247199 0.0 1021235
09:00+16n34499 0.0 10211570
12:00+19n34413 0.0 10201846
15:00+19n34383 0.0 10201815
18:00+17n2454100 0.0 1020124
21:00+11ne2272100 0.0 102130
8 august, sun
sun800:00+8e11858 0.0 102211
03:00+7e118867 0.0 102310
06:00+12ene126991 0.0 1023162
09:00+17nne225015 0.0 1022911
12:00+17nw1254100 0.0 1022583
15:00+14wnw1166100 0.0 102231
18:00+13wnw1167100 0.0 102222
21:00+12n1180100 0.2 102215
9 august, mon
mon900:00+11ne2481100 0.1 102292
03:00+12e2679100 0.1 1021163
06:00+13ese3874100 0.0 1020273
09:00+13ese2795100 1.9 1020405
12:00+14e4890100 0.1 1019512
15:00+15e378990 1.3 1019589
18:00+14ene4895100 0.3 1018410
21:00+12ene3898100 0.4 1018323